Time,TemperatureF,DewpointF,PressureIn,WindDirection,WindDirectionDegrees,WindSpeedMPH,WindSpeedGustMPH,Humidity,HourlyPrecipIn,Conditions,Clouds,dailyrainin,SoftwareType,DateUTC
2013-03-29 00:00:00,60.8,24.7,29.97,SSE,158,0.0,1.0,25,0.00,,,0.00,Wunderground v.1.15,2013-03-29 06:00:00,
2013-03-29 00:10:00,60.5,24.5,29.97,SSE,158,1.0,1.0,25,0.00,,,0.00,Wunderground v.1.15,2013-03-29 06:10:00,
2013-03-29 00:20:00,60.3,24.3,29.98,SSE,158,0.0,0.0,25,0.00,,,0.00,Wunderground v.1.15,2013-03-29 06:20:00,
2013-03-29 00:30:00,59.6,24.6,29.97,SSE,158,0.0,0.0,26,0.00,,,0.00,Wunderground v.1.15,2013-03-29 06:30:00,
2013-03-29 00:40:00,58.8,23.9,29.98,SSE,158,0.0,0.0,26,0.00,,,0.00,Wunderground v.1.15,2013-03-29 06:40:00,
2013-03-29 00:50:00,57.9,25.0,29.98,SSE,158,0.0,0.0,28,0.00,,,0.00,Wunderground v.1.15,2013-03-29 06:50:00,
2013-03-29 01:00:00,56.8,24.8,29.98,SSE,158,0.0,0.0,29,0.00,,,0.00,Wunderground v.1.15,2013-03-29 07:00:00,
2013-03-29 01:10:00,56.3,25.2,29.98,SSE,158,0.0,2.0,30,0.00,,,0.00,Wunderground v.1.15,2013-03-29 07:10:00,
2013-03-29 01:20:00,56.0,25.0,29.98,SSE,158,0.0,2.0,30,0.00,,,0.00,Wunderground v.1.15,2013-03-29 07:20:00,
2013-03-29 01:30:00,56.2,25.1,29.98,SSE,158,0.0,2.0,30,0.00,,,0.00,Wunderground v.1.15,2013-03-29 07:30:00,
2013-03-29 01:40:00,56.2,25.1,29.98,SSE,158,0.0,2.0,30,0.00,,,0.00,Wunderground v.1.15,2013-03-29 07:40:00,
2013-03-29 01:50:00,56.1,25.1,29.98,SSE,158,0.0,2.0,30,0.00,,,0.00,Wunderground v.1.15,2013-03-29 07:50:00,
2013-03-29 02:00:00,56.0,25.0,29.99,SSE,158,0.0,2.0,30,0.00,,,0.00,Wunderground v.1.15,2013-03-29 08:00:00,
2013-03-29 02:10:00,55.9,24.9,29.99,SSE,158,0.0,2.0,30,0.00,,,0.00,Wunderground v.1.15,2013-03-29 08:10:00,
2013-03-29 02:20:00,55.2,25.1,29.99,SSE,158,0.0,2.0,31,0.00,,,0.00,Wunderground v.1.15,2013-03-29 08:20:00,
2013-03-29 02:30:00,54.5,24.4,29.99,SSE,158,0.0,2.0,31,0.00,,,0.00,Wunderground v.1.15,2013-03-29 08:30:00,
2013-03-29 02:40:00,54.3,24.3,29.99,SSE,158,0.0,2.0,31,0.00,,,0.00,Wunderground v.1.15,2013-03-29 08:40:00,
2013-03-29 02:50:00,54.2,24.9,29.99,SSE,158,0.0,2.0,32,0.00,,,0.00,Wunderground v.1.15,2013-03-29 08:50:00,
2013-03-29 03:00:00,53.3,24.9,29.99,SSE,158,0.0,2.0,33,0.00,,,0.00,Wunderground v.1.15,2013-03-29 09:00:00,
2013-03-29 03:10:00,52.9,24.5,29.99,SSE,158,0.0,2.0,33,0.00,,,0.00,Wunderground v.1.15,2013-03-29 09:10:00,
2013-03-29 03:20:00,53.0,24.6,29.99,SSE,158,0.0,2.0,33,0.00,,,0.00,Wunderground v.1.15,2013-03-29 09:20:00,
2013-03-29 03:30:00,53.0,24.6,30.00,SSE,158,1.0,5.0,33,0.00,,,0.00,Wunderground v.1.15,2013-03-29 09:30:00,
2013-03-29 03:40:00,52.9,25.3,29.99,SSE,158,1.0,1.0,34,0.00,,,0.00,Wunderground v.1.15,2013-03-29 09:40:00,
2013-03-29 03:50:00,52.6,25.0,29.99,SSE,158,0.0,2.0,34,0.00,,,0.00,Wunderground v.1.15,2013-03-29 09:50:00,
2013-03-29 04:00:00,52.2,24.6,29.99,SSE,158,0.0,2.0,34,0.00,,,0.00,Wunderground v.1.15,2013-03-29 10:00:00,
2013-03-29 04:10:00,52.1,24.6,29.99,SSE,158,0.0,2.0,34,0.00,,,0.00,Wunderground v.1.15,2013-03-29 10:10:00,
2013-03-29 04:20:00,51.7,24.2,29.99,SSE,158,0.0,2.0,34,0.00,,,0.00,Wunderground v.1.15,2013-03-29 10:20:00,
2013-03-29 04:30:00,51.6,24.8,29.99,SSE,158,0.0,2.0,35,0.00,,,0.00,Wunderground v.1.15,2013-03-29 10:30:00,
2013-03-29 04:40:00,51.5,24.7,29.99,SSE,158,0.0,2.0,35,0.00,,,0.00,Wunderground v.1.15,2013-03-29 10:40:00,
2013-03-29 04:50:00,51.0,24.3,29.99,SSE,158,0.0,2.0,35,0.00,,,0.00,Wunderground v.1.15,2013-03-29 10:50:00,
2013-03-29 05:00:00,50.3,24.3,29.99,SSE,158,0.0,2.0,36,0.00,,,0.00,Wunderground v.1.15,2013-03-29 11:00:00,
2013-03-29 05:10:00,49.7,24.5,30.00,SSE,158,0.0,2.0,37,0.00,,,0.00,Wunderground v.1.15,2013-03-29 11:10:00,
2013-03-29 05:20:00,49.2,24.6,30.00,SSE,158,0.0,2.0,38,0.00,,,0.00,Wunderground v.1.15,2013-03-29 11:20:00,
2013-03-29 05:30:00,48.8,24.3,30.01,SSE,158,0.0,2.0,38,0.00,,,0.00,Wunderground v.1.15,2013-03-29 11:30:00,
2013-03-29 05:40:00,48.9,23.1,30.01,SSE,158,0.0,2.0,36,0.00,,,0.00,Wunderground v.1.15,2013-03-29 11:40:00,
2013-03-29 05:50:00,48.6,23.5,30.02,SSE,158,0.0,2.0,37,0.00,,,0.00,Wunderground v.1.15,2013-03-29 11:50:00,
2013-03-29 06:00:00,48.9,23.7,30.02,SSE,158,0.0,2.0,37,0.00,,,0.00,Wunderground v.1.15,2013-03-29 12:00:00,
2013-03-29 06:10:00,48.9,23.7,30.03,SSE,158,0.0,2.0,37,0.00,,,0.00,Wunderground v.1.15,2013-03-29 12:10:00,
2013-03-29 06:20:00,48.5,22.1,30.03,SSE,158,0.0,2.0,35,0.00,,,0.00,Wunderground v.1.15,2013-03-29 12:20:00,
2013-03-29 06:30:00,48.0,22.3,30.03,SSE,158,0.0,2.0,36,0.00,,,0.00,Wunderground v.1.15,2013-03-29 12:30:00,
2013-03-29 06:40:00,47.6,22.6,30.03,SSE,158,0.0,2.0,37,0.00,,,0.00,Wunderground v.1.15,2013-03-29 12:40:00,
2013-03-29 06:50:00,47.4,23.7,30.04,SSE,158,0.0,2.0,39,0.00,,,0.00,Wunderground v.1.15,2013-03-29 12:50:00,
2013-03-29 07:00:00,47.2,24.1,30.04,SSE,158,0.0,2.0,40,0.00,,,0.00,Wunderground v.1.15,2013-03-29 13:00:00,
2013-03-29 07:10:00,46.8,24.3,30.05,SSE,158,0.0,2.0,41,0.00,,,0.00,Wunderground v.1.15,2013-03-29 13:10:00,
2013-03-29 07:20:00,47.0,24.5,30.05,SSE,158,0.0,2.0,41,0.00,,,0.00,Wunderground v.1.15,2013-03-29 13:20:00,
2013-03-29 07:30:00,47.0,24.5,30.06,SSE,158,0.0,2.0,41,0.00,,,0.00,Wunderground v.1.15,2013-03-29 13:30:00,
2013-03-29 07:40:00,47.0,24.5,30.06,SSE,158,0.0,2.0,41,0.00,,,0.00,Wunderground v.1.15,2013-03-29 13:40:00,
2013-03-29 07:50:00,47.1,24.6,30.07,SSE,158,0.0,2.0,41,0.00,,,0.00,Wunderground v.1.15,2013-03-29 13:50:00,
2013-03-29 08:00:00,47.3,24.2,30.07,SSE,158,0.0,2.0,40,0.00,,,0.00,Wunderground v.1.15,2013-03-29 14:00:00,
2013-03-29 08:10:00,48.6,25.3,30.07,SSE,158,0.0,2.0,40,0.00,,,0.00,Wunderground v.1.15,2013-03-29 14:10:00,
2013-03-29 08:20:00,50.7,25.3,30.07,SSE,158,0.0,2.0,37,0.00,,,0.00,Wunderground v.1.15,2013-03-29 14:20:00,
2013-03-29 08:30:00,53.1,24.7,30.07,SSE,158,0.0,2.0,33,0.00,,,0.00,Wunderground v.1.15,2013-03-29 14:30:00,
2013-03-29 08:40:00,53.7,22.2,30.07,SSE,158,1.0,2.0,29,0.00,,,0.00,Wunderground v.1.15,2013-03-29 14:40:00,
2013-03-29 08:50:00,53.7,21.3,30.08,SSE,158,3.0,3.0,28,0.00,,,0.00,Wunderground v.1.15,2013-03-29 14:50:00,
2013-03-29 09:00:00,54.2,21.8,30.08,SSE,159,2.0,2.0,28,0.00,,,0.00,Wunderground v.1.15,2013-03-29 15:00:00,
2013-03-29 09:10:00,55.1,21.7,30.08,SSE,159,1.0,4.0,27,0.00,,,0.00,Wunderground v.1.15,2013-03-29 15:10:00,
2013-03-29 09:20:00,55.7,22.2,30.09,South,169,3.0,3.0,27,0.00,,,0.00,Wunderground v.1.15,2013-03-29 15:20:00,
2013-03-29 09:30:00,56.8,21.3,30.08,South,169,1.0,2.0,25,0.00,,,0.00,Wunderground v.1.15,2013-03-29 15:30:00,
2013-03-29 09:40:00,57.8,21.2,30.08,South,169,2.0,2.0,24,0.00,,,0.00,Wunderground v.1.15,2013-03-29 15:40:00,
2013-03-29 09:50:00,59.2,21.4,30.08,South,169,2.0,2.0,23,0.00,,,0.00,Wunderground v.1.15,2013-03-29 15:50:00,
2013-03-29 10:00:00,60.8,20.6,30.08,SSE,168,1.0,1.0,21,0.00,,,0.00,Wunderground v.1.15,2013-03-29 16:00:00,
2013-03-29 10:10:00,61.8,21.4,30.08,South,169,1.0,1.0,21,0.00,,,0.00,Wunderground v.1.15,2013-03-29 16:10:00,
2013-03-29 10:20:00,62.8,22.2,30.07,SSE,167,1.0,1.0,21,0.00,,,0.00,Wunderground v.1.15,2013-03-29 16:20:00,
2013-03-29 10:30:00,63.0,21.2,30.07,SSE,159,1.0,2.0,20,0.00,,,0.00,Wunderground v.1.15,2013-03-29 16:30:00,
2013-03-29 10:40:00,64.7,21.4,30.07,SSE,159,0.0,2.0,19,0.00,,,0.00,Wunderground v.1.15,2013-03-29 16:40:00,
2013-03-29 10:50:00,63.8,20.7,30.07,SSE,163,1.0,1.0,19,0.00,,,0.00,Wunderground v.1.15,2013-03-29 16:50:00,
2013-03-29 11:00:00,65.0,21.7,30.06,SSE,167,0.0,2.0,19,0.00,,,0.00,Wunderground v.1.15,2013-03-29 17:00:00,
2013-03-29 11:10:00,64.9,20.3,30.06,South,188,1.0,3.0,18,0.00,,,0.00,Wunderground v.1.15,2013-03-29 17:10:00,
2013-03-29 11:20:00,64.8,21.5,30.06,South,180,2.0,3.0,19,0.00,,,0.00,Wunderground v.1.15,2013-03-29 17:20:00,
2013-03-29 11:30:00,65.8,21.1,30.05,SSW,192,2.0,2.0,18,0.00,,,0.00,Wunderground v.1.15,2013-03-29 17:30:00,
2013-03-29 11:40:00,65.8,21.1,30.05,SW,219,3.0,4.0,18,0.00,,,0.00,Wunderground v.1.15,2013-03-29 17:40:00,
2013-03-29 11:50:00,65.8,21.1,30.05,SSW,211,3.0,4.0,18,0.00,,,0.00,Wunderground v.1.15,2013-03-29 17:50:00,
2013-03-29 12:00:00,66.0,21.2,30.05,SW,215,2.0,3.0,18,0.00,,,0.00,Wunderground v.1.15,2013-03-29 18:00:00,
2013-03-29 12:10:00,67.5,21.1,30.04,SW,232,1.0,8.0,17,0.00,,,0.00,Wunderground v.1.15,2013-03-29 18:10:00,
2013-03-29 12:20:00,67.7,21.3,30.04,WSW,238,2.0,2.0,17,0.00,,,0.00,Wunderground v.1.15,2013-03-29 18:20:00,
2013-03-29 12:30:00,67.7,21.3,30.03,SSW,209,2.0,2.0,17,0.00,,,0.00,Wunderground v.1.15,2013-03-29 18:30:00,
2013-03-29 12:40:00,68.1,21.6,30.03,ESE,103,2.0,7.0,17,0.00,,,0.00,Wunderground v.1.15,2013-03-29 18:40:00,
2013-03-29 12:50:00,68.1,21.6,30.02,ESE,121,3.0,3.0,17,0.00,,,0.00,Wunderground v.1.15,2013-03-29 18:50:00,
2013-03-29 13:00:00,67.4,18.1,30.01,SE,142,3.0,3.0,15,0.00,,,0.00,Wunderground v.1.15,2013-03-29 19:00:00,
2013-03-29 13:10:00,68.7,17.5,30.01,SW,219,4.0,4.0,14,0.00,,,0.00,Wunderground v.1.15,2013-03-29 19:10:00,
2013-03-29 13:20:00,69.2,16.2,30.01,South,170,4.0,4.0,13,0.00,,,0.00,Wunderground v.1.15,2013-03-29 19:20:00,
2013-03-29 13:30:00,68.9,16.0,30.00,ESE,110,3.0,3.0,13,0.00,,,0.00,Wunderground v.1.15,2013-03-29 19:30:00,
2013-03-29 13:40:00,69.7,16.6,30.00,SE,146,3.0,6.0,13,0.00,,,0.00,Wunderground v.1.15,2013-03-29 19:40:00,
2013-03-29 13:50:00,70.1,16.9,29.99,SSW,202,4.0,5.0,13,0.00,,,0.00,Wunderground v.1.15,2013-03-29 19:50:00,
2013-03-29 14:00:00,70.1,15.1,29.99,NE,49,5.0,5.0,12,0.00,,,0.00,Wunderground v.1.15,2013-03-29 20:00:00,
2013-03-29 14:10:00,70.1,15.1,29.98,SSW,192,5.0,5.0,12,0.00,,,0.00,Wunderground v.1.15,2013-03-29 20:10:00,
2013-03-29 14:20:00,70.4,15.3,29.98,SW,221,4.0,9.0,12,0.00,,,0.00,Wunderground v.1.15,2013-03-29 20:20:00,
2013-03-29 14:30:00,71.9,14.5,29.97,SSW,196,4.0,7.0,11,0.00,,,0.00,Wunderground v.1.15,2013-03-29 20:30:00,
2013-03-29 14:40:00,71.4,14.1,29.97,SE,146,5.0,5.0,11,0.00,,,0.00,Wunderground v.1.15,2013-03-29 20:40:00,
2013-03-29 14:50:00,72.1,14.6,29.96,SSE,164,2.0,6.0,11,0.00,,,0.00,Wunderground v.1.15,2013-03-29 20:50:00,
2013-03-29 15:00:00,73.8,13.8,29.96,West,278,2.0,2.0,10,0.00,,,0.00,Wunderground v.1.15,2013-03-29 21:00:00,
2013-03-29 15:10:00,73.5,13.5,29.96,North,355,2.0,5.0,10,0.00,,,0.00,Wunderground v.1.15,2013-03-29 21:10:00,
2013-03-29 15:20:00,74.5,14.3,29.95,NW,325,2.0,2.0,10,0.00,,,0.00,Wunderground v.1.15,2013-03-29 21:20:00,
2013-03-29 15:30:00,74.4,14.2,29.95,NW,311,5.0,5.0,10,0.00,,,0.00,Wunderground v.1.15,2013-03-29 21:30:00,
2013-03-29 15:40:00,74.5,14.3,29.95,WNW,287,4.0,4.0,10,0.00,,,0.00,Wunderground v.1.15,2013-03-29 21:40:00,
2013-03-29 15:50:00,73.8,15.9,29.95,WSW,240,4.0,8.0,11,0.00,,,0.00,Wunderground v.1.15,2013-03-29 21:50:00,
2013-03-29 16:00:00,72.9,17.3,29.95,SW,235,5.0,5.0,12,0.00,,,0.00,Wunderground v.1.15,2013-03-29 22:00:00,
2013-03-29 16:10:00,74.8,16.7,29.94,West,269,5.0,5.0,11,0.00,,,0.00,Wunderground v.1.15,2013-03-29 22:10:00,
2013-03-29 16:20:00,74.7,16.6,29.94,NW,317,5.0,5.0,11,0.00,,,0.00,Wunderground v.1.15,2013-03-29 22:20:00,
2013-03-29 16:30:00,74.6,18.6,29.94,WNW,286,2.0,4.0,12,0.00,,,0.00,Wunderground v.1.15,2013-03-29 22:30:00,
2013-03-29 16:40:00,73.0,17.3,29.94,West,263,4.0,4.0,12,0.00,,,0.00,Wunderground v.1.15,2013-03-29 22:40:00,
2013-03-29 16:50:00,73.3,19.4,29.93,SW,219,3.0,5.0,13,0.00,,,0.00,Wunderground v.1.15,2013-03-29 22:50:00,
2013-03-29 17:00:00,73.5,17.7,29.93,WSW,245,6.0,6.0,12,0.00,,,0.00,Wunderground v.1.15,2013-03-29 23:00:00,
2013-03-29 17:10:00,73.6,17.8,29.93,West,260,4.0,4.0,12,0.00,,,0.00,Wunderground v.1.15,2013-03-29 23:10:00,
2013-03-29 17:20:00,74.7,18.7,29.93,West,263,2.0,2.0,12,0.00,,,0.00,Wunderground v.1.15,2013-03-29 23:20:00,
2013-03-29 17:30:00,73.4,19.5,29.93,WSW,245,3.0,4.0,13,0.00,,,0.00,Wunderground v.1.15,2013-03-29 23:30:00,
2013-03-29 17:40:00,72.4,18.7,29.93,SW,235,6.0,6.0,13,0.00,,,0.00,Wunderground v.1.15,2013-03-29 23:40:00,
2013-03-29 17:50:00,72.1,18.5,29.93,WSW,248,6.0,9.0,13,0.00,,,0.00,Wunderground v.1.15,2013-03-29 23:50:00,
2013-03-29 18:00:00,72.5,18.8,29.92,SW,228,6.0,6.0,13,0.00,,,0.00,Wunderground v.1.15,2013-03-30 00:00:00,
2013-03-29 18:10:00,72.4,18.7,29.93,WSW,254,6.0,7.0,13,0.00,,,0.00,Wunderground v.1.15,2013-03-30 00:10:00,
2013-03-29 18:20:00,72.0,18.4,29.92,SW,223,5.0,8.0,13,0.00,,,0.00,Wunderground v.1.15,2013-03-30 00:20:00,
2013-03-29 18:30:00,71.7,18.2,29.92,WSW,245,5.0,5.0,13,0.00,,,0.00,Wunderground v.1.15,2013-03-30 00:30:00,
2013-03-29 18:40:00,71.1,17.7,29.93,WSW,246,2.0,2.0,13,0.00,,,0.00,Wunderground v.1.15,2013-03-30 00:40:00,
2013-03-29 18:50:00,71.1,19.4,29.93,SW,235,3.0,3.0,14,0.00,,,0.00,Wunderground v.1.15,2013-03-30 00:50:00,
2013-03-29 19:00:00,71.2,17.8,29.93,SW,229,2.0,5.0,13,0.00,,,0.00,Wunderground v.1.15,2013-03-30 01:00:00,
2013-03-29 19:10:00,70.9,19.3,29.93,SW,234,3.0,5.0,14,0.00,,,0.00,Wunderground v.1.15,2013-03-30 01:10:00,
2013-03-29 19:20:00,70.3,18.8,29.93,WSW,242,4.0,4.0,14,0.00,,,0.00,Wunderground v.1.15,2013-03-30 01:20:00,
2013-03-29 19:30:00,69.7,18.3,29.94,WSW,243,3.0,3.0,14,0.00,,,0.00,Wunderground v.1.15,2013-03-30 01:30:00,
2013-03-29 19:40:00,69.3,19.6,29.94,WSW,242,1.0,2.0,15,0.00,,,0.00,Wunderground v.1.15,2013-03-30 01:40:00,
2013-03-29 19:50:00,68.9,19.3,29.94,WSW,240,2.0,2.0,15,0.00,,,0.00,Wunderground v.1.15,2013-03-30 01:50:00,
2013-03-29 20:00:00,68.5,19.0,29.94,WSW,240,0.0,2.0,15,0.00,,,0.00,Wunderground v.1.15,2013-03-30 02:00:00,
2013-03-29 20:10:00,67.9,18.5,29.94,WSW,242,0.0,2.0,15,0.00,,,0.00,Wunderground v.1.15,2013-03-30 02:10:00,
2013-03-29 20:20:00,67.3,18.0,29.95,WSW,242,0.0,2.0,15,0.00,,,0.00,Wunderground v.1.15,2013-03-30 02:20:00,
2013-03-29 20:30:00,66.7,19.0,29.95,WSW,242,0.0,2.0,16,0.00,,,0.00,Wunderground v.1.15,2013-03-30 02:30:00,
2013-03-29 20:40:00,66.2,18.6,29.96,WSW,242,0.0,2.0,16,0.00,,,0.00,Wunderground v.1.15,2013-03-30 02:40:00,
2013-03-29 20:50:00,65.8,18.3,29.96,WSW,242,0.0,2.0,16,0.00,,,0.00,Wunderground v.1.15,2013-03-30 02:50:00,
2013-03-29 21:00:00,65.4,18.0,29.96,WSW,242,1.0,3.0,16,0.00,,,0.00,Wunderground v.1.15,2013-03-30 03:00:00,
2013-03-29 21:10:00,65.4,19.4,29.96,WSW,242,1.0,1.0,17,0.00,,,0.00,Wunderground v.1.15,2013-03-30 03:10:00,
2013-03-29 21:20:00,65.2,19.2,29.97,WSW,242,1.0,4.0,17,0.00,,,0.00,Wunderground v.1.15,2013-03-30 03:20:00,
2013-03-29 21:30:00,65.1,19.2,29.97,WSW,246,1.0,1.0,17,0.00,,,0.00,Wunderground v.1.15,2013-03-30 03:30:00,
2013-03-29 21:40:00,64.5,18.7,29.98,WSW,246,1.0,1.0,17,0.00,,,0.00,Wunderground v.1.15,2013-03-30 03:40:00,
2013-03-29 21:50:00,64.2,18.4,29.98,WSW,246,0.0,2.0,17,0.00,,,0.00,Wunderground v.1.15,2013-03-30 03:50:00,
2013-03-29 22:00:00,63.7,18.0,29.99,WSW,246,1.0,2.0,17,0.00,,,0.00,Wunderground v.1.15,2013-03-30 04:00:00,
2013-03-29 22:10:00,63.3,19.0,29.99,WSW,246,0.0,2.0,18,0.00,,,0.00,Wunderground v.1.15,2013-03-30 04:10:00,
2013-03-29 22:20:00,63.1,18.9,29.99,WSW,246,0.0,2.0,18,0.00,,,0.00,Wunderground v.1.15,2013-03-30 04:20:00,
2013-03-29 22:30:00,62.4,19.5,29.99,WSW,246,0.0,2.0,19,0.00,,,0.00,Wunderground v.1.15,2013-03-30 04:30:00,
2013-03-29 22:40:00,61.9,19.1,30.00,WSW,246,1.0,1.0,19,0.00,,,0.00,Wunderground v.1.15,2013-03-30 04:40:00,
2013-03-29 22:50:00,61.7,19.0,30.00,WSW,246,0.0,2.0,19,0.00,,,0.00,Wunderground v.1.15,2013-03-30 04:50:00,
2013-03-29 23:00:00,61.3,18.6,30.00,WSW,246,0.0,2.0,19,0.00,,,0.00,Wunderground v.1.15,2013-03-30 05:00:00,
2013-03-29 23:10:00,60.4,19.1,30.00,WSW,246,0.0,2.0,20,0.00,,,0.00,Wunderground v.1.15,2013-03-30 05:10:00,
2013-03-29 23:20:00,58.7,19.9,30.00,WSW,246,0.0,2.0,22,0.00,,,0.00,Wunderground v.1.15,2013-03-30 05:20:00,
2013-03-29 23:30:00,57.3,18.7,30.01,WSW,246,0.0,2.0,22,0.00,,,0.00,Wunderground v.1.15,2013-03-30 05:30:00,
2013-03-29 23:40:00,56.5,20.1,30.01,WSW,246,0.0,2.0,24,0.00,,,0.00,Wunderground v.1.15,2013-03-30 05:40:00,
2013-03-29 23:50:00,55.6,19.3,30.01,WSW,246,0.0,2.0,24,0.00,,,0.00,Wunderground v.1.15,2013-03-30 05:50:00,